| time (UTC) | temp C | wind direction | speed KPH | gust KPH | rain 1hr cm | rain 24hr cm | rain mn cm | humidity % | barometer mb |
| 20260507210311 | 16 | 248 | 0.0 | 0.0 | 0.00 | 0.15 | 0.15 | 56 | 1007.3 |
| 20260507205802 | 16 | 113 | 0.0 | 3.2 | 0.00 | 0.15 | 0.15 | 55 | 1007.4 |
| 20260507205250 | 17 | 248 | 0.0 | 9.7 | 0.00 | 0.15 | 0.15 | 53 | 1007.5 |
| 20260507204742 | 17 | 293 | 0.0 | 17.7 | 0.00 | 0.15 | 0.15 | 51 | 1007.5 |
| 20260507204231 | 17 | 248 | 3.2 | 17.7 | 0.00 | 0.15 | 0.15 | 52 | 1007.4 |
| 20260507203720 | 18 | 270 | 0.0 | 6.4 | 0.00 | 0.15 | 0.15 | 54 | 1007.2 |
| 20260507202702 | 18 | 225 | 0.0 | 6.4 | 0.00 | 0.15 | 0.15 | 53 | 1007.0 |
| 20260507202148 | 17 | 68 | 1.6 | 6.4 | 0.00 | 0.15 | 0.15 | 55 | 1006.8 |
| 20260507201638 | 17 | 315 | 0.0 | 9.7 | 0.00 | 0.15 | 0.15 | 55 | 1006.8 |
| 20260507201128 | 17 | 293 | 3.2 | 17.7 | 0.00 | 0.15 | 0.15 | 54 | 1007.1 |
| 20260507200619 | 18 | 90 | 3.2 | 17.7 | 0.00 | 0.15 | 0.15 | 54 | 1007.0 |
| 20260507195559 | 18 | 270 | 4.8 | 12.9 | 0.00 | 0.15 | 0.15 | 52 | 1007.1 |
| 20260507195050 | 18 | 293 | 0.0 | 11.3 | 0.00 | 0.15 | 0.15 | 52 | 1007.2 |
| 20260507194538 | 18 | 270 | 0.0 | 11.3 | 0.00 | 0.15 | 0.15 | 55 | 1007.3 |
| 20260507194029 | 17 | 248 | 0.0 | 9.7 | 0.00 | 0.15 | 0.15 | 58 | 1007.5 |
| 20260507193520 | 17 | 293 | 0.0 | 9.7 | 0.00 | 0.15 | 0.15 | 58 | 1007.5 |
| 20260507193010 | 17 | 248 | 0.0 | 6.4 | 0.00 | 0.15 | 0.15 | 59 | 1007.4 |
| 20260507192500 | 17 | 293 | 0.0 | 6.4 | 0.00 | 0.15 | 0.15 | 61 | 1007.5 |
| 20260507191949 | 16 | 248 | 0.0 | 6.4 | 0.00 | 0.15 | 0.15 | 64 | 1007.6 |
| 20260507191439 | 15 | 248 | 0.0 | 6.4 | 0.00 | 0.15 | 0.15 | 67 | 1007.9 |
| 20260507190929 | 15 | 293 | 0.0 | 6.4 | 0.00 | 0.15 | 0.15 | 66 | 1007.9 |
| 20260507190419 | 15 | 248 | 0.0 | 6.4 | 0.00 | 0.15 | 0.15 | 67 | 1007.7 |
| 20260507185909 | 15 | 270 | 0.0 | 6.4 | 0.00 | 0.15 | 0.15 | 68 | 1007.7 |
| 20260507185401 | 15 | 248 | 0.0 | 17.7 | 0.00 | 0.15 | 0.15 | 68 | 1007.2 |
| 20260507184847 | 15 | 270 | 0.0 | 17.7 | 0.00 | 0.15 | 0.15 | 67 | 1007.2 |
| 20260507184337 | 15 | 270 | 0.0 | 9.7 | 0.00 | 0.15 | 0.15 | 66 | 1006.9 |
| 20260507183828 | 15 | 248 | 0.0 | 9.7 | 0.00 | 0.15 | 0.15 | 67 | 1006.8 |
| 20260507183316 | 15 | 248 | 0.0 | 27.4 | 0.00 | 0.15 | 0.15 | 67 | 1006.8 |
| 20260507182807 | 15 | 315 | 1.6 | 27.4 | 0.00 | 0.15 | 0.15 | 70 | 1006.6 |
| 20260507182256 | 15 | 293 | 0.0 | 12.9 | 0.00 | 0.15 | 0.15 | 69 | 1006.2 |
| 20260507181743 | 15 | 270 | 3.2 | 12.9 | 0.00 | 0.15 | 0.15 | 69 | 1006.1 |
| 20260507181234 | 15 | 248 | 0.0 | 9.7 | 0.00 | 0.15 | 0.15 | 70 | 1006.1 |
| 20260507180727 | 15 | 113 | 0.0 | 6.4 | 0.00 | 0.15 | 0.15 | 74 | 1005.5 |
| 20260507180218 | 15 | 90 | 0.0 | 6.4 | 0.00 | 0.15 | 0.15 | 73 | 1005.2 |
| 20260507175707 | 15 | 23 | 0.0 | 9.7 | 0.00 | 0.15 | 0.15 | 75 | 1005.1 |
| 20260507175158 | 15 | 158 | 1.6 | 12.9 | 0.00 | 0.15 | 0.15 | 75 | 1004.8 |
| 20260507174647 | 15 | 225 | 4.8 | 17.7 | 0.00 | 0.15 | 0.15 | 75 | 1004.6 |
| 20260507174137 | 14 | 315 | 0.0 | 17.7 | 0.00 | 0.15 | 0.15 | 77 | 1005.4 |
| 20260507173118 | 14 | 293 | 3.2 | 11.3 | 0.00 | 0.15 | 0.15 | 77 | 1005.9 |
| 20260507172100 | 13 | 68 | 0.0 | 11.3 | 0.00 | 0.15 | 0.15 | 78 | 1006.4 |
| 20260507171544 | 13 | 158 | 3.2 | 9.7 | 0.00 | 0.15 | 0.15 | 79 | 1006.3 |
| 20260507171035 | 14 | 113 | 3.2 | 6.4 | 0.00 | 0.15 | 0.15 | 77 | 1005.7 |
| 20260507170525 | 15 | 248 | 3.2 | 14.5 | 0.00 | 0.15 | 0.15 | 78 | 1005.8 |
| 20260507170014 | 14 | 135 | 1.6 | 14.5 | 0.00 | 0.15 | 0.15 | 85 | 1006.6 |
| 20260507165504 | 13 | 203 | 0.0 | 11.3 | 0.00 | 0.15 | 0.15 | 89 | 1005.8 |
| 20260507164954 | 12 | 270 | 1.6 | 11.3 | 0.03 | 0.15 | 0.15 | 90 | 1007.3 |
| 20260507164445 | 12 | 293 | 0.0 | 9.7 | 0.03 | 0.15 | 0.15 | 92 | 1007.9 |
| 20260507163934 | 12 | 270 | 0.0 | 11.3 | 0.03 | 0.15 | 0.15 | 92 | 1008.2 |
| 20260507163425 | 12 | 293 | 4.8 | 12.9 | 0.03 | 0.15 | 0.15 | 93 | 1009.0 |
| 20260507162915 | 12 | 293 | 6.4 | 17.7 | 0.03 | 0.15 | 0.15 | 93 | 1009.7 |
| 20260507162405 | 12 | 293 | 6.4 | 17.7 | 0.03 | 0.15 | 0.15 | 94 | 1010.0 |
| 20260507161345 | 12 | 293 | 6.4 | 12.9 | 0.05 | 0.15 | 0.15 | 95 | 1010.2 |
| 20260507160836 | 11 | 270 | 0.0 | 3.2 | 0.05 | 0.15 | 0.15 | 95 | 1009.3 |
| 20260507160326 | 11 | 293 | 0.0 | 3.2 | 0.05 | 0.15 | 0.15 | 95 | 1009.3 |
| 20260507155815 | 11 | 270 | 0.0 | 3.2 | 0.05 | 0.15 | 0.15 | 95 | 1009.7 |
| 20260507155306 | 11 | 248 | 0.0 | 0.0 | 0.05 | 0.15 | 0.15 | 95 | 1009.9 |
| 20260507154757 | 11 | 248 | 0.0 | 6.4 | 0.03 | 0.13 | 0.13 | 95 | 1010.0 |
| 20260507154246 | 11 | 293 | 0.0 | 6.4 | 0.03 | 0.13 | 0.13 | 95 | 1010.4 |
| 20260507153734 | 11 | 293 | 0.0 | 3.2 | 0.03 | 0.13 | 0.13 | 95 | 1010.9 |
| 20260507153222 | 12 | 338 | 0.0 | 3.2 | 0.03 | 0.13 | 0.13 | 94 | 1009.7 |
| 20260507152712 | 11 | 293 | 0.0 | 0.0 | 0.03 | 0.13 | 0.13 | 92 | 1009.5 |
| 20260507152203 | 12 | 293 | 0.0 | 0.0 | 0.03 | 0.13 | 0.13 | 90 | 1009.2 |
| 20260507151142 | 12 | 248 | 0.0 | 6.4 | 0.03 | 0.10 | 0.10 | 87 | 1009.1 |
| 20260507150631 | 12 | 248 | 0.0 | 6.4 | 0.10 | 0.10 | 0.10 | 86 | 1009.3 |
| 20260507145615 | 13 | 270 | 0.0 | 3.2 | 0.10 | 0.10 | 0.10 | 87 | 1008.8 |
| 20260507144553 | 13 | 248 | 0.0 | 3.2 | 0.10 | 0.10 | 0.10 | 90 | 1008.2 |
| 20260507144043 | 13 | 270 | 0.0 | 6.4 | 0.10 | 0.10 | 0.10 | 89 | 1007.8 |
| 20260507143534 | 12 | 225 | 0.0 | 6.4 | 0.10 | 0.10 | 0.10 | 89 | 1007.6 |
| 20260507141455 | 13 | 180 | 0.0 | 3.2 | 0.05 | 0.05 | 0.05 | 88 | 1008.3 |
| 20260507140941 | 13 | 113 | 0.0 | 6.4 | 0.03 | 0.03 | 0.03 | 85 | 1009.0 |
| 20260507140435 | 14 | 270 | 0.0 | 6.4 | 0.00 | 0.00 | 0.00 | 81 | 1009.5 |
| 20260507135920 | 14 | 270 | 0.0 | 14.5 | 0.00 | 0.00 | 0.00 | 79 | 1010.1 |
| 20260507135410 | 14 | 270 | 3.2 | 29.0 | 0.00 | 0.00 | 0.00 | 79 | 1010.8 |
| 20260507134350 | 14 | 293 | 14.5 | 29.0 | 0.00 | 0.00 | 0.00 | 77 | 1011.6 |
| 20260507133840 | 15 | 270 | 6.4 | 22.5 | 0.00 | 0.00 | 0.00 | 75 | 1011.6 |
| 20260507133330 | 15 | 248 | 0.0 | 11.3 | 0.00 | 0.00 | 0.00 | 74 | 1010.2 |
| 20260507132822 | 15 | 248 | 0.0 | 3.2 | 0.00 | 0.00 | 0.00 | 76 | 1008.0 |
| 20260507132311 | 15 | 203 | 0.0 | 12.9 | 0.00 | 0.00 | 0.00 | 75 | 1007.4 |
| 20260507131251 | 15 | 203 | 3.2 | 17.7 | 0.00 | 0.00 | 0.00 | 76 | 1006.2 |
| 20260507130740 | 15 | 225 | 0.0 | 14.5 | 0.00 | 0.00 | 0.00 | 79 | 1006.3 |
| 20260507130231 | 15 | 203 | 0.0 | 12.9 | 0.00 | 0.00 | 0.00 | 81 | 1006.4 |
| 20260507125722 | 15 | 203 | 0.0 | 12.9 | 0.00 | 0.00 | 0.00 | 82 | 1007.2 |
| 20260507125212 | 15 | 203 | 0.0 | 6.4 | 0.00 | 0.00 | 0.00 | 79 | 1007.3 |
| 20260507124701 | 15 | 158 | 0.0 | 11.3 | 0.00 | 0.00 | 0.00 | 79 | 1007.1 |
| 20260507124153 | 15 | 158 | 0.0 | 11.3 | 0.00 | 0.00 | 0.00 | 76 | 1007.1 |
| 20260507123640 | 15 | 180 | 3.2 | 12.9 | 0.00 | 0.00 | 0.00 | 72 | 1007.1 |
| 20260507123130 | 16 | 180 | 1.6 | 12.9 | 0.00 | 0.00 | 0.00 | 72 | 1007.1 |
| 20260507122619 | 16 | 203 | 0.0 | 9.7 | 0.00 | 0.00 | 0.00 | 72 | 1007.0 |
| 20260507122108 | 16 | 158 | 0.0 | 6.4 | 0.00 | 0.00 | 0.00 | 74 | 1006.9 |
| 20260507121558 | 16 | 203 | 0.0 | 6.4 | 0.00 | 0.00 | 0.00 | 73 | 1006.8 |
| 20260507121048 | 16 | 248 | 0.0 | 6.4 | 0.00 | 0.00 | 0.00 | 74 | 1006.5 |
| 20260507120538 | 16 | 225 | 0.0 | 6.4 | 0.00 | 0.00 | 0.00 | 75 | 1006.5 |
| 20260507120028 | 16 | 158 | 0.0 | 11.3 | 0.00 | 0.00 | 0.00 | 74 | 1006.2 |
| 20260507115519 | 16 | 158 | 0.0 | 12.9 | 0.00 | 0.00 | 0.00 | 75 | 1005.8 |
| 20260507115010 | 16 | 180 | 0.0 | 12.9 | 0.00 | 0.00 | 0.00 | 75 | 1005.4 |
| 20260507114459 | 16 | 180 | 6.4 | 12.9 | 0.00 | 0.00 | 0.00 | 75 | 1005.0 |
| 20260507113951 | 16 | 203 | 0.0 | 17.7 | 0.00 | 0.00 | 0.00 | 75 | 1005.0 |
| 20260507112929 | 16 | 135 | 1.6 | 11.3 | 0.00 | 0.00 | 0.00 | 77 | 1004.6 |
| 20260507112422 | 16 | 203 | 0.0 | 11.3 | 0.00 | 0.00 | 0.00 | 79 | 1004.9 |
| 20260507111909 | 17 | 180 | 0.0 | 33.8 | 0.00 | 0.00 | 0.00 | 81 | 1004.9 |
| 20260507111400 | 17 | 203 | 3.2 | 33.8 | 0.00 | 0.00 | 0.00 | 78 | 1004.6 |
| 20260507110851 | 17 | 158 | 1.6 | 17.7 | 0.00 | 0.00 | 0.00 | 79 | 1004.5 |
| 20260507110337 | 17 | 203 | 8.0 | 25.7 | 0.00 | 0.00 | 0.00 | 81 | 1004.5 |
| 20260507105827 | 17 | 135 | 0.0 | 25.7 | 0.00 | 0.00 | 0.00 | 85 | 1004.2 |
| 20260507104807 | 17 | 203 | 6.4 | 24.1 | 0.00 | 0.00 | 0.00 | 89 | 1003.8 |
| 20260507104257 | 17 | 158 | 4.8 | 24.1 | 0.00 | 0.00 | 0.00 | 89 | 1003.4 |
| 20260507103746 | 17 | 203 | 6.4 | 20.9 | 0.00 | 0.00 | 0.00 | 88 | 1003.4 |
| 20260507103236 | 18 | 158 | 8.0 | 20.9 | 0.00 | 0.00 | 0.00 | 90 | 1003.1 |
| 20260507102729 | 18 | 203 | 6.4 | 20.9 | 0.00 | 0.00 | 0.00 | 91 | 1002.9 |
| 20260507102220 | 18 | 203 | 8.0 | 20.9 | 0.00 | 0.00 | 0.00 | 90 | 1002.9 |
| 20260507101707 | 18 | 203 | 6.4 | 12.9 | 0.00 | 0.00 | 0.00 | 90 | 1002.7 |
| 20260507101157 | 18 | 203 | 3.2 | 12.9 | 0.00 | 0.00 | 0.00 | 89 | 1002.9 |
| 20260507100648 | 18 | 248 | 6.4 | 17.7 | 0.00 | 0.00 | 0.00 | 89 | 1002.9 |
| 20260507100136 | 18 | 203 | 0.0 | 17.7 | 0.00 | 0.00 | 0.00 | 89 | 1002.7 |
| 20260507095117 | 18 | 135 | 3.2 | 20.9 | 0.00 | 0.00 | 0.00 | 88 | 1002.8 |
| 20260507094604 | 18 | 135 | 6.4 | 17.7 | 0.00 | 0.00 | 0.00 | 89 | 1002.7 |
| 20260507094057 | 19 | 135 | 4.8 | 14.5 | 0.00 | 0.00 | 0.00 | 89 | 1002.5 |
| 20260507093549 | 19 | 203 | 6.4 | 22.5 | 0.00 | 0.00 | 0.00 | 88 | 1002.4 |
| 20260507092525 | 19 | 135 | 6.4 | 17.7 | 0.00 | 0.00 | 0.00 | 87 | 1002.7 |
| 20260507092016 | 19 | 113 | 6.4 | 22.5 | 0.00 | 0.00 | 0.00 | 87 | 1002.7 |
| 20260507091505 | 19 | 225 | 3.2 | 24.1 | 0.00 | 0.00 | 0.00 | 87 | 1002.7 |
| 20260507085935 | 19 | 158 | 6.4 | 17.7 | 0.00 | 0.00 | 0.00 | 88 | 1002.2 |
| 20260507084914 | 19 | 180 | 11.3 | 22.5 | 0.00 | 0.00 | 0.00 | 87 | 1002.6 |
| 20260507084405 | 19 | 225 | 6.4 | 22.5 | 0.00 | 0.00 | 0.00 | 85 | 1002.4 |
| 20260507083346 | 19 | 180 | 11.3 | 22.5 | 0.00 | 0.00 | 0.00 | 82 | 1001.8 |
| 20260507082835 | 19 | 158 | 6.4 | 17.7 | 0.00 | 0.00 | 0.00 | 86 | 1001.5 |
| 20260507082325 | 19 | 203 | 8.0 | 17.7 | 0.00 | 0.00 | 0.00 | 89 | 1001.8 |
| 20260507081815 | 19 | 135 | 6.4 | 12.9 | 0.00 | 0.00 | 0.00 | 91 | 1002.0 |
| 20260507080755 | 19 | 248 | 0.0 | 12.9 | 0.00 | 0.00 | 0.00 | 91 | 1002.4 |
| 20260507080243 | 19 | 248 | 0.0 | 9.7 | 0.00 | 0.00 | 0.00 | 91 | 1002.5 |
| 20260507075732 | 19 | 225 | 3.2 | 11.3 | 0.00 | 0.00 | 0.00 | 91 | 1002.5 |
| 20260507075223 | 19 | 158 | 3.2 | 11.3 | 0.00 | 0.00 | 0.00 | 91 | 1002.3 |
| 20260507074202 | 19 | 180 | 6.4 | 17.7 | 0.00 | 0.00 | 0.00 | 91 | 1002.5 |
| 20260507073653 | 19 | 180 | 0.0 | 6.4 | 0.00 | 0.00 | 0.00 | 92 | 1002.5 |
| 20260507073142 | 19 | 203 | 3.2 | 6.4 | 0.00 | 0.00 | 0.00 | 92 | 1002.3 |
| 20260507072632 | 19 | 158 | 0.0 | 6.4 | 0.00 | 0.00 | 0.00 | 92 | 1002.1 |
| 20260507071613 | 19 | 158 | 3.2 | 6.4 | 0.00 | 0.00 | 0.00 | 92 | 1002.4 |
| 20260507071103 | 19 | 158 | 0.0 | 6.4 | 0.00 | 0.00 | 0.00 | 92 | 1002.4 |
| 20260507070553 | 20 | 248 | 3.2 | 6.4 | 0.00 | 0.00 | 0.00 | 91 | 1002.4 |
| 20260507065534 | 20 | 135 | 1.6 | 12.9 | 0.00 | 0.00 | 0.00 | 91 | 1002.6 |
| 20260507064514 | 20 | 158 | 3.2 | 14.5 | 0.00 | 0.00 | 0.00 | 91 | 1001.9 |
| 20260507064008 | 20 | 180 | 3.2 | 17.7 | 0.00 | 0.00 | 0.00 | 91 | 1002.0 |
| 20260507063455 | 20 | 158 | 6.4 | 17.7 | 0.00 | 0.00 | 0.00 | 91 | 1002.2 |
| 20260507062940 | 20 | 180 | 3.2 | 11.3 | 0.00 | 0.00 | 0.00 | 92 | 1002.3 |
| 20260507062431 | 21 | 225 | 1.6 | 3.2 | 0.00 | 0.00 | 0.00 | 91 | 1002.3 |
| 20260507061921 | 21 | 180 | 0.0 | 6.4 | 0.00 | 0.00 | 0.00 | 91 | 1002.2 |
| 20260507061411 | 21 | 225 | 1.6 | 6.4 | 0.00 | 0.00 | 0.00 | 91 | 1002.1 |
| 20260507060901 | 21 | 180 | 0.0 | 6.4 | 0.00 | 0.00 | 0.00 | 92 | 1002.2 |
| 20260507060350 | 21 | 248 | 0.0 | 6.4 | 0.00 | 0.00 | 0.00 | 92 | 1002.2 |
| 20260507055841 | 21 | 135 | 0.0 | 3.2 | 0.00 | 0.00 | 0.00 | 92 | 1002.1 |
| 20260507055331 | 21 | 180 | 0.0 | 6.4 | 0.00 | 0.00 | 0.00 | 94 | 1002.2 |
| 20260507054822 | 22 | 270 | 0.0 | 6.4 | 0.00 | 0.00 | 0.00 | 95 | 1002.1 |
| 20260507054311 | 22 | 270 | 0.0 | 11.3 | 0.00 | 0.00 | 0.00 | 95 | 1001.9 |
| 20260507053254 | 21 | 270 | 0.0 | 9.7 | 0.00 | 0.00 | 0.00 | 99 | 1002.0 |
| 20260507052741 | 21 | 270 | 1.6 | 6.4 | 0.00 | 0.00 | 0.00 | 99 | 1002.1 |
| 20260507052236 | 21 | 315 | 0.0 | 0.0 | 0.00 | 0.00 | 0.00 | 99 | 1001.5 |
| 20260507051721 | 21 | 315 | 0.0 | 6.4 | 0.00 | 0.00 | 0.00 | 99 | 1001.4 |
| 20260507051212 | 21 | 315 | 0.0 | 6.4 | 0.00 | 0.00 | 0.00 | 99 | 1001.4 |
| 20260507050702 | 21 | 315 | 0.0 | 0.0 | 0.00 | 0.00 | 0.00 | 99 | 1001.5 |
| 20260507050153 | 20 | 293 | 0.0 | 0.0 | 0.00 | 0.00 | 0.00 | 99 | 1001.5 |
| 20260507045638 | 20 | 315 | 0.0 | 0.0 | 0.00 | 0.00 | 0.00 | 98 | 1001.7 |
| 20260507045130 | 21 | 315 | 0.0 | 0.0 | 0.00 | 0.00 | 0.00 | 98 | 1001.5 |
| 20260507044619 | 21 | 293 | 0.0 | 0.0 | 0.00 | 0.00 | 0.00 | 97 | 1001.2 |
| 20260507044108 | 21 | 315 | 0.0 | 0.0 | 0.00 | 0.00 | 0.00 | 97 | 1001.3 |
| 20260507043601 | 21 | 315 | 0.0 | 0.0 | 0.00 | 0.00 | 0.00 | 97 | 1001.1 |
| 20260507043059 | 21 | 315 | 0.0 | 0.0 | 0.00 | 0.00 | 0.00 | 97 | 1001.3 |
| 20260507042539 | 21 | 338 | 0.0 | 0.0 | 0.00 | 0.00 | 0.00 | 97 | 1001.3 |
| 20260507042028 | 22 | 338 | 0.0 | 0.0 | 0.00 | 0.00 | 0.00 | 96 | 1001.5 |
| 20260507041530 | 21 | 338 | 0.0 | 0.0 | 0.00 | 0.00 | 0.00 | 97 | 1001.4 |
| 20260507041009 | 21 | 315 | 0.0 | 0.0 | 0.00 | 0.00 | 0.00 | 97 | 1001.5 |
| 20260507040502 | 21 | 315 | 0.0 | 0.0 | 0.00 | 0.00 | 0.00 | 96 | 1001.5 |
| 20260507035949 | 21 | 315 | 0.0 | 0.0 | 0.00 | 0.00 | 0.00 | 97 | 1001.6 |
| 20260507035439 | 21 | 338 | 0.0 | 0.0 | 0.00 | 0.00 | 0.00 | 97 | 1001.6 |
| 20260507034930 | 21 | 315 | 0.0 | 0.0 | 0.00 | 0.00 | 0.00 | 96 | 1001.7 |
| 20260507034437 | 22 | 315 | 0.0 | 3.2 | 0.00 | 0.00 | 0.00 | 96 | 1001.8 |
| 20260507033909 | 22 | 315 | 0.0 | 3.2 | 0.00 | 0.00 | 0.00 | 95 | 1001.8 |
| 20260507032337 | 22 | 0 | 0.0 | 0.0 | 0.00 | 0.00 | 0.00 | 94 | 1001.9 |
| 20260507031826 | 22 | 338 | 0.0 | 0.0 | 0.00 | 0.00 | 0.00 | 94 | 1001.9 |
| 20260507031317 | 22 | 338 | 0.0 | 0.0 | 0.00 | 0.00 | 0.00 | 93 | 1001.7 |
| 20260507030807 | 22 | 0 | 0.0 | 0.0 | 0.00 | 0.00 | 0.00 | 94 | 1001.9 |
| 20260507030257 | 22 | 315 | 0.0 | 0.0 | 0.00 | 0.00 | 0.00 | 94 | 1001.9 |
| 20260507025237 | 22 | 0 | 0.0 | 3.2 | 0.00 | 0.00 | 0.00 | 93 | 1001.8 |
| 20260507024727 | 22 | 338 | 0.0 | 0.0 | 0.00 | 0.00 | 0.00 | 93 | 1001.8 |
| 20260507023707 | 22 | 0 | 0.0 | 0.0 | 0.00 | 0.00 | 0.00 | 93 | 1002.0 |
| 20260507022647 | 23 | 315 | 0.0 | 0.0 | 0.00 | 0.00 | 0.00 | 92 | 1002.3 |
| 20260507022137 | 23 | 315 | 0.0 | 0.0 | 0.00 | 0.00 | 0.00 | 92 | 1002.2 |
| 20260507021627 | 23 | 315 | 0.0 | 0.0 | 0.00 | 0.00 | 0.00 | 92 | 1002.2 |
| 20260507021117 | 22 | 315 | 0.0 | 0.0 | 0.00 | 0.00 | 0.00 | 93 | 1002.0 |
| 20260507020607 | 22 | 338 | 0.0 | 0.0 | 0.00 | 0.00 | 0.00 | 93 | 1002.2 |
| 20260507020056 | 23 | 315 | 0.0 | 0.0 | 0.00 | 0.00 | 0.00 | 93 | 1002.3 |
| 20260507015549 | 23 | 315 | 0.0 | 0.0 | 0.00 | 0.00 | 0.00 | 92 | 1002.7 |
| 20260507015035 | 23 | 293 | 0.0 | 0.0 | 0.00 | 0.00 | 0.00 | 91 | 1002.7 |
| 20260507014528 | 23 | 293 | 0.0 | 0.0 | 0.00 | 0.00 | 0.00 | 90 | 1002.8 |
| 20260507014015 | 23 | 270 | 0.0 | 0.0 | 0.00 | 0.00 | 0.00 | 90 | 1002.6 |
| 20260507013505 | 23 | 270 | 0.0 | 0.0 | 0.00 | 0.00 | 0.00 | 91 | 1002.5 |
| 20260507012954 | 22 | 315 | 0.0 | 0.0 | 0.00 | 0.00 | 0.00 | 92 | 1002.3 |
| 20260507011935 | 22 | 338 | 0.0 | 0.0 | 0.00 | 0.00 | 0.00 | 93 | 1002.2 |
| 20260507011427 | 22 | 315 | 0.0 | 0.0 | 0.00 | 0.00 | 0.00 | 92 | 1002.2 |
| 20260507010915 | 22 | 315 | 0.0 | 0.0 | 0.00 | 0.00 | 0.00 | 92 | 1002.1 |
| 20260507005855 | 23 | 315 | 0.0 | 0.0 | 0.00 | 0.00 | 0.00 | 90 | 1001.9 |
| 20260507005345 | 23 | 315 | 0.0 | 3.2 | 0.00 | 0.00 | 0.00 | 89 | 1002.0 |
| 20260507004836 | 24 | 338 | 3.2 | 3.2 | 0.00 | 0.00 | 0.00 | 88 | 1001.8 |
| 20260507003815 | 24 | 0 | 0.0 | 3.2 | 0.00 | 0.00 | 0.00 | 87 | 1001.7 |
| 20260507002756 | 24 | 293 | 0.0 | 3.2 | 0.00 | 0.00 | 0.00 | 88 | 1001.4 |
| 20260507002245 | 24 | 113 | 0.0 | 3.2 | 0.00 | 0.00 | 0.00 | 88 | 1001.5 |
| 20260507001733 | 24 | 0 | 0.0 | 3.2 | 0.00 | 0.00 | 0.00 | 88 | 1001.4 |
| 20260507001222 | 24 | 248 | 0.0 | 0.0 | 0.00 | 0.00 | 0.00 | 88 | 1001.4 |
| 20260507000713 | 24 | 270 | 0.0 | 0.0 | 0.00 | 0.00 | 0.00 | 88 | 1001.5 |
| 20260507000205 | 24 | 293 | 0.0 | 0.0 | 0.00 | 0.00 | 0.00 | 88 | 1001.2 |
| 20260506235652 | 24 | 68 | 0.0 | 0.0 | 0.00 | 0.00 | 0.00 | 88 | 1001.4 |
| 20260506235143 | 24 | 248 | 0.0 | 0.0 | 0.00 | 0.00 | 0.00 | 87 | 1001.2 |
| 20260506234123 | 24 | 270 | 0.0 | 0.0 | 0.00 | 0.00 | 0.00 | 88 | 1001.1 |
| 20260506233104 | 24 | 113 | 0.0 | 0.0 | 0.00 | 0.00 | 0.00 | 87 | 1001.4 |
| 20260506232047 | 25 | 90 | 0.0 | 0.0 | 0.00 | 0.00 | 0.00 | 86 | 1001.6 |
| 20260506231023 | 25 | 68 | 0.0 | 0.0 | 0.00 | 0.00 | 0.00 | 86 | 1001.5 |
| 20260506230513 | 25 | 225 | 0.0 | 0.0 | 0.00 | 0.00 | 0.00 | 85 | 1001.4 |
| 20260506230003 | 25 | 0 | 0.0 | 0.0 | 0.00 | 0.00 | 0.00 | 85 | 1001.4 |
| 20260506225455 | 25 | 338 | 0.0 | 0.0 | 0.00 | 0.00 | 0.00 | 85 | 1001.6 |
| 20260506224944 | 25 | 338 | 0.0 | 0.0 | 0.00 | 0.00 | 0.00 | 85 | 1001.6 |
| 20260506224430 | 25 | 270 | 0.0 | 0.0 | 0.00 | 0.00 | 0.00 | 84 | 1001.6 |
| 20260506223920 | 25 | 270 | 0.0 | 0.0 | 0.00 | 0.00 | 0.00 | 84 | 1001.3 |
| 20260506223410 | 25 | 338 | 0.0 | 3.2 | 0.00 | 0.00 | 0.00 | 84 | 1001.0 |
| 20260506222350 | 25 | 90 | 0.0 | 3.2 | 0.00 | 0.00 | 0.00 | 83 | 1001.2 |
| 20260506221840 | 25 | 270 | 0.0 | 0.0 | 0.00 | 0.00 | 0.00 | 83 | 1001.1 |
| 20260506221330 | 26 | 248 | 0.0 | 0.0 | 0.00 | 0.00 | 0.00 | 82 | 1001.1 |
| 20260506220822 | 26 | 293 | 0.0 | 0.0 | 0.00 | 0.00 | 0.00 | 81 | 1001.3 |
| 20260506220311 | 26 | 113 | 0.0 | 0.0 | 0.00 | 0.00 | 0.00 | 81 | 1000.9 |
| 20260506215802 | 26 | 180 | 0.0 | 3.2 | 0.00 | 0.00 | 0.00 | 81 | 1001.0 |
| 20260506215251 | 26 | 45 | 0.0 | 3.2 | 0.00 | 0.00 | 0.00 | 80 | 1001.4 |
| 20260506214741 | 26 | 315 | 0.0 | 0.0 | 0.00 | 0.00 | 0.00 | 80 | 1001.5 |
| 20260506214231 | 27 | 68 | 0.0 | 0.0 | 0.00 | 0.00 | 0.00 | 80 | 1001.7 |
| 20260506213721 | 27 | 45 | 0.0 | 0.0 | 0.00 | 0.00 | 0.00 | 79 | 1001.5 |